[[{"header":{"parameterUnit":"m.s-1","parameterCategory":1,"la1":30.2991,"la2":30.254,"lo1":-89.0895,"lo2":-89.0444,"dy":0.0017,"dx":0.0017,"nx":28,"ny":28,"refTime":"2023-08-21T03:00:00:Z","depth":0,"parameterNumber":2,"parameterNumberName":"U-component_of_WINDS"},"data":[0,0,0,0,0,0,0,0,0,0,0,0,0,0,0,0,0,0,0,0,0,0,0,0,0,0,0,0,0,0,0,0,0,0,0,0,0,0,0,0,0,0,0,0,0,0,0,0,0,0,0,0,0,0,0,0,0,0,-7.0825,-7.0825,0,-7.0829,-7.0829,-7.0829,-7.0682,-7.0678,-7.0674,-7.067,-7.0675,-7.0679,-7.0682,0,0,0,0,0,0,0,0,0,0,0,0,0,-7.0693,-7.0696,-7.0825,-7.0825,-7.0825,-7.0829,-7.0829,-7.0829,-7.0682,-7.0677,-7.0673,-7.0668,-7.0674,-7.0678,-7.0683,0,0,0,0,0,0,0,0,0,0,0,0,0,-7.0729,-7.0697,-7.0825,-7.0753,-7.0746,-7.0829,-7.0829,-7.0829,-7.0683,-7.0677,-7.0671,-7.0666,-7.0672,-7.0678,-7.0683,-7.0837,0,0,-7.0701,-7.0703,0,0,0,0,0,0,0,0,-7.0727,-7.0734,-7.0763,-7.0758,-7.0751,-7.0749,-7.0784,-7.0832,-7.0685,-7.0707,-7.067,-7.0663,-7.0704,-7.0707,-7.0721,-7.0837,-7.0837,-7.0701,-7.0705,-7.0707,-7.0709,0,0,0,0,0,0,0,-7.0725,-7.0733,-7.0827,-7.0764,-7.0756,-7.072,-7.0719,-7.0792,-7.0739,-7.0705,-7.0694,-7.0696,-7.07,-7.0716,-7.072,-7.0837,-7.0701,-7.0706,-7.071,-7.0712,-7.108,-7.1086,0,0,0,0,0,0,-7.0732,-7.0732,-7.0827,-7.0827,-7.0724,-7.0727,-7.0726,-7.0755,-7.0738,-7.0729,-7.0701,-7.069,-7.0709,-7.0713,-7.0719,-7.0897,-7.0707,-7.0713,-7.0716,-7.1073,-7.1081,-7.1088,0,0,0,0,0,0,-7.073,-7.0742,-7.0826,-7.0776,-7.0784,-7.0736,-7.077,-7.0758,-7.0774,-7.0735,-7.0725,-7.0727,-7.0704,-7.0711,-7.0809,-7.0895,-7.0715,-7.072,-7.1066,-7.1076,-7.1085,-7.1255,0,0,0,0,0,0,-7.0726,-7.0742,-7.0799,-7.0779,-7.0788,-7.0915,-7.0776,-7.0763,-7.0784,-7.0769,-7.0757,-7.0749,-7.07,-7.0801,-7.0814,-7.09,-7.0725,-7.1058,-7.107,-7.1082,-7.1241,-7.1269,-7.1293,0,0,0,0,0,-7.0722,-7.0847,-7.0803,-7.0815,-7.0858,-7.0921,-7.0926,-7.0867,-7.0792,-7.0849,-7.0824,-7.0749,-7.0884,-7.0812,-7.0826,-7.0915,-7.1052,-7.1067,-7.1081,-7.123,-7.1264,-7.1292,0,0,0,0,0,0,-7.0878,-7.0843,-7.0793,-7.0915,-7.0922,-7.0896,-7.0966,-7.0904,-7.0933,-7.0917,-7.0843,-7.0842,-7.0951,-7.0943,-7.0863,-7.1062,-7.0955,-7.0973,-7.1064,-7.1096,-7.1121,-7.112,-7.0729,0,0,0,0,0,-7.0927,-7.098,-7.0947,-7.1057,-7.1063,-7.1015,-7.104,-7.0994,-7.0998,-7.1,-7.0982,-7.099,-7.1034,-7.1064,-7.1103,-7.124,-7.1235,-7.1308,-7.1334,-7.1355,-7.1371,-7.1444,-7.1476,-7.1135,-7.1135,-7.1135,0,0,-7.1028,-7.1015,-7.1053,-7.1088,-7.1088,-7.1146,-7.1018,-7.1084,-7.1126,-7.101,-7.11,-7.1089,-7.1092,-7.1211,-7.1262,-7.1207,-7.1465,-7.1374,-7.1391,-7.1395,-7.1462,-7.1494,-7.1523,-7.1145,-7.1143,-7.1141,0,0,-7.124,-7.1236,-7.1328,-7.1331,-7.1333,-7.13,-7.1322,-7.1306,-7.1293,-7.1383,-7.1298,-7.1347,-7.1424,-7.1431,-7.1444,-7.1662,-7.1594,-7.1677,-7.1811,-7.1883,-7.1909,-7.1933,-7.201,-7.2039,-7.1693,-7.1693,-7.1694,0,-7.1365,-7.1448,-7.1383,-7.1455,-7.1473,-7.1372,-7.1465,-7.1471,-7.1486,-7.1501,-7.144,-7.1535,-7.153,-7.1649,-7.1702,-7.1717,-7.174,-7.1677,-7.1911,-7.1934,-7.1954,-7.2027,-7.2057,-7.1703,-7.1702,-7.1701,-7.17,0,-7.1601,-7.166,-7.1734,-7.1751,-7.1778,-7.186,-7.1809,-7.1844,-7.1797,-7.1771,-7.1864,-7.1855,-7.189,-7.1915,-7.187,-7.2028,-7.1994,-7.1923,-7.1813,-7.1998,-7.2065,-7.2093,-7.1718,-7.1714,-7.1711,-7.1709,0,0,-7.191,-7.1891,-7.1919,-7.1926,-7.1922,-7.1966,-7.2045,-7.2079,-7.2111,-7.2125,-7.2189,-7.2258,-7.2193,-7.2208,-7.2163,-7.2226,-7.2399,-7.2147,-7.2146,-7.2193,-7.2573,-7.2626,-7.2659,-7.2355,-7.236,-7.2364,-7.2573,0,-7.2115,-7.2247,-7.2192,-7.233,-7.2384,-7.229,-7.2358,-7.2363,-7.2342,-7.2385,-7.2361,-7.2411,-7.2321,-7.233,-7.2388,-7.2366,-7.2474,-7.235,-7.2414,-7.2417,-7.2414,-7.2694,-7.275,-7.2947,-7.2599,-7.2603,-7.2606,0,-7.2372,-7.2397,-7.254,-7.2527,-7.2548,-7.261,-7.2638,-7.268,-7.2685,-7.2665,-7.2684,-7.2625,-7.2702,-7.2594,-7.2699,-7.2616,-7.264,-7.2633,-7.2639,-7.2641,-7.2522,-7.2704,-7.3008,-7.3037,-7.2647,-7.2644,-7.2641,0,-7.2583,-7.2652,-7.2747,-7.2756,-7.2743,-7.2789,-7.2786,-7.2785,-7.281,-7.2835,-7.285,-7.2884,-7.2902,-7.293,-7.2882,-7.2808,-7.2995,-7.2883,-7.298,-7.2982,-7.3022,-7.302,-7.3334,-7.304,-7.304,-7.3039,-7.3038,0,-7.2817,-7.2908,-7.2841,-7.2899,-7.2999,-7.2936,-7.3036,-7.3023,-7.3023,-7.3078,-7.2999,-7.3052,-7.2986,-7.3033,-7.2997,-7.3089,-7.3099,-7.3085,-7.3074,-7.3091,-7.3093,-7.3104,-7.3089,-7.3047,-7.3045,-7.3043,-7.3042,0,-7.3067,-7.3026,-7.3123,-7.3104,-7.3101,-7.3176,-7.3159,-7.3213,-7.3187,-7.3257,-7.327,-7.3229,-7.328,-7.3236,-7.3286,-7.3261,-7.3384,-7.3354,-7.3383,-7.3374,-7.3473,-7.3464,-7.3804,-7.3845,-7.3527,-7.353,-7.3533,0,-7.3219,-7.3287,-7.3276,-7.3306,-7.3308,-7.3359,-7.3384,-7.3325,-7.3355,-7.3366,-7.3419,-7.3463,-7.3496,-7.3583,-7.3558,-7.3596,-7.3565,-7.3682,-7.357,-7.3586,-7.3566,-7.3562,-7.3569,-7.3704,-7.3708,-7.3711,-7.3714,0,-7.3492,-7.3469,-7.3508,-7.354,-7.3572,-7.3595,-7.3612,-7.3642,-7.3582,-7.3619,-7.3671,-7.3696,-7.3747,-7.3793,-7.3823,-7.382,-7.3758,-7.375,-7.3774,-7.3791,-7.3804,-7.3798,-7.3443,-7.3741,-7.3739,-7.3737,-7.3735,-7.3734,-7.3697,-7.3753,-7.3754,-7.38,-7.3807,-7.3825,-7.3874,-7.3855,-7.3897,-7.3933,-7.3897,-7.396,-7.3964,-7.3998,-7.4004,-7.4053,-7.4004,-7.4039,-7.4048,-7.4057,-7.4072,-7.3799,-7.4058,-7.4057,-7.4056,-7.4056,-7.4055,0,-7.3965,-7.3962,-7.4005,-7.4031,-7.4068,-7.4007,-7.4022,-7.4057,-7.4113,-7.4123,-7.4157,-7.4217,-7.4261,-7.4241,-7.428,-7.4323,-7.4295,-7.4335,-7.433,-7.4331,-7.4113,-7.4088,-7.4357,-7.4357,-7.4357,-7.4357,-7.4357,-7.4357,-7.4109,-7.4201,-7.4178,-7.4273,-7.4269,-7.4329,-7.4344,-7.436,-7.4367,-7.4438,-7.4474,-7.4461,-7.4459,-7.4498,-7.4536,-7.4529,-7.4547,-7.4597,-7.458,-7.4376,-7.4346,-7.4318,-7.4293,-7.4602,-7.4602,-7.4793,-7.4795,-7.4796]},{"header":{"parameterUnit":"m.s-1","parameterCategory":1,"la1":30.2991,"la2":30.254,"lo1":-89.0895,"lo2":-89.0444,"dy":0.0017,"dx":0.0017,"nx":28,"ny":28,"refTime":"2023-08-21T03:00:00:Z","depth":0,"parameterNumber":3,"parameterNumberName":"V-component_of_WINDS"},"data":[0,0,0,0,0,0,0,0,0,0,0,0,0,0,0,0,0,0,0,0,0,0,0,0,0,0,0,0,0,0,0,0,0,0,0,0,0,0,0,0,0,0,0,0,0,0,0,0,0,0,0,0,0,0,0,0,0,0,0.2253,0.2254,0,0.2289,0.229,0.229,0.2323,0.2323,0.2324,0.2324,0.2359,0.2359,0.236,0,0,0,0,0,0,0,0,0,0,0,0,0,0.2212,0.2213,0.2253,0.2254,0.2254,0.2289,0.229,0.229,0.2323,0.2323,0.2324,0.2324,0.2358,0.2359,0.236,0,0,0,0,0,0,0,0,0,0,0,0,0,0.2237,0.2213,0.2253,0.2275,0.2277,0.2289,0.229,0.229,0.2323,0.2323,0.2324,0.2324,0.2358,0.2359,0.236,0.2353,0,0,0.2362,0.2363,0,0,0,0,0,0,0,0,0.2236,0.2239,0.2271,0.2273,0.2276,0.2302,0.2288,0.2311,0.2323,0.2305,0.2324,0.2325,0.2339,0.2342,0.2347,0.2354,0.2356,0.2362,0.2363,0.2363,0.2363,0,0,0,0,0,0,0,0.2234,0.2237,0.2267,0.2272,0.2275,0.2282,0.2287,0.2292,0.2318,0.2307,0.2309,0.2313,0.2341,0.2346,0.2348,0.2356,0.2362,0.2363,0.2363,0.2364,0.2359,0.2359,0,0,0,0,0,0,0.2229,0.2236,0.2266,0.2269,0.2257,0.2283,0.2287,0.2293,0.2318,0.2323,0.2313,0.2315,0.2344,0.2347,0.2349,0.2342,0.2363,0.2364,0.2364,0.236,0.2359,0.2359,0,0,0,0,0,0,0.2228,0.2231,0.2265,0.2253,0.2258,0.2283,0.2289,0.2294,0.2299,0.2323,0.2327,0.2314,0.2345,0.2348,0.2352,0.2344,0.2364,0.2365,0.2361,0.236,0.2359,0.2328,0,0,0,0,0,0,0.2227,0.2231,0.2229,0.2253,0.2258,0.2267,0.2289,0.2294,0.2301,0.2303,0.2325,0.2329,0.2346,0.235,0.2352,0.2345,0.2366,0.2361,0.236,0.2359,0.233,0.2326,0.2323,0,0,0,0,0,0.2225,0.2218,0.2228,0.2232,0.2256,0.2266,0.227,0.229,0.23,0.2298,0.2313,0.2328,0.2345,0.235,0.2353,0.2346,0.2362,0.2361,0.2359,0.2332,0.2327,0.2323,0,0,0,0,0,0,0.2192,0.2222,0.2233,0.2234,0.2247,0.2272,0.227,0.2284,0.2295,0.2297,0.2321,0.2325,0.2326,0.2337,0.2342,0.2341,0.2355,0.2355,0.2333,0.2329,0.2326,0.2323,0.2366,0,0,0,0,0,0.2185,0.2191,0.2217,0.2215,0.2221,0.2244,0.225,0.2264,0.2279,0.2284,0.23,0.2313,0.2321,0.2326,0.2335,0.2332,0.2337,0.2329,0.2325,0.2323,0.2321,0.232,0.2317,0.2354,0.2354,0.2354,0,0,0.2169,0.2187,0.2189,0.2209,0.2221,0.2227,0.2249,0.2254,0.2258,0.2285,0.2289,0.2301,0.2318,0.2318,0.2319,0.2327,0.2312,0.2321,0.2318,0.2319,0.2318,0.2315,0.2312,0.2353,0.2353,0.2354,0,0,0.2145,0.2159,0.2159,0.2171,0.219,0.2205,0.2205,0.2228,0.2237,0.2242,0.2262,0.2268,0.2281,0.2292,0.2299,0.228,0.2294,0.2282,0.2264,0.2263,0.226,0.2258,0.225,0.2247,0.2281,0.2281,0.2281,0,0.2124,0.2134,0.2157,0.2161,0.2169,0.2194,0.2194,0.2205,0.2225,0.2229,0.2238,0.2256,0.2269,0.2272,0.2268,0.2273,0.2273,0.2279,0.2259,0.2257,0.2254,0.2248,0.2245,0.2279,0.228,0.228,0.228,0,0.2106,0.2113,0.2111,0.213,0.2138,0.214,0.2163,0.2168,0.2182,0.2196,0.2201,0.2218,0.223,0.2232,0.2246,0.2237,0.2242,0.2255,0.227,0.2249,0.2243,0.224,0.2277,0.2278,0.2278,0.2279,0,0,0.206,0.2094,0.2092,0.2102,0.2125,0.213,0.2133,0.2147,0.215,0.2163,0.2166,0.2178,0.219,0.2198,0.2213,0.2212,0.2195,0.2225,0.2226,0.2218,0.2187,0.2176,0.2173,0.2206,0.2205,0.2205,0.2185,0,0.2039,0.2047,0.2068,0.2069,0.2075,0.21,0.2103,0.2117,0.2131,0.2138,0.2153,0.2161,0.2176,0.2181,0.2182,0.2197,0.2189,0.2199,0.2208,0.2208,0.2202,0.217,0.2159,0.2139,0.2183,0.2182,0.2182,0,0.2015,0.2027,0.2029,0.2052,0.2055,0.2058,0.2072,0.2078,0.2095,0.2105,0.2115,0.2132,0.2136,0.2151,0.2157,0.2163,0.2168,0.2177,0.2176,0.2177,0.2193,0.2168,0.2133,0.213,0.2179,0.2179,0.2179,0,0.198,0.1997,0.2001,0.2008,0.2035,0.2036,0.2047,0.2065,0.2072,0.2084,0.2088,0.2101,0.2107,0.2116,0.2136,0.2145,0.2139,0.2156,0.2147,0.2146,0.2144,0.2143,0.2108,0.2148,0.2148,0.2148,0.2149,0,0.1953,0.1953,0.1986,0.1987,0.1988,0.2013,0.2012,0.2026,0.2041,0.2046,0.2069,0.2072,0.2099,0.2105,0.2121,0.2123,0.2126,0.2134,0.2138,0.2131,0.213,0.2134,0.2135,0.2148,0.2148,0.2148,0.2148,0,0.1914,0.1936,0.1941,0.1967,0.1974,0.1973,0.1995,0.1997,0.2013,0.2019,0.2021,0.2046,0.2055,0.2076,0.209,0.2101,0.2099,0.2107,0.2093,0.2095,0.2085,0.2085,0.205,0.2046,0.209,0.2089,0.2089,0,0.1895,0.1896,0.1922,0.1927,0.1938,0.1945,0.1953,0.1977,0.1984,0.2003,0.2003,0.2014,0.2024,0.2038,0.2056,0.2067,0.2075,0.2062,0.2077,0.207,0.2074,0.2073,0.2073,0.2058,0.2057,0.2057,0.2057,0,0.1859,0.187,0.188,0.1894,0.1902,0.1914,0.1927,0.193,0.1957,0.1963,0.1973,0.1981,0.1997,0.2007,0.2021,0.2033,0.2049,0.2052,0.205,0.2043,0.2035,0.2038,0.2083,0.2052,0.2053,0.2053,0.2053,0.2053,0.1828,0.183,0.1849,0.1859,0.1872,0.1884,0.1888,0.1905,0.1914,0.1928,0.1942,0.1951,0.1968,0.1989,0.1999,0.2006,0.2014,0.2012,0.2011,0.201,0.2007,0.2035,0.2008,0.2009,0.2009,0.2009,0.2009,0,0.1792,0.1806,0.1816,0.1834,0.1842,0.1858,0.1874,0.1879,0.1887,0.1901,0.1911,0.1923,0.1933,0.1953,0.1965,0.1967,0.1974,0.1969,0.1968,0.1971,0.1999,0.1999,0.1962,0.1962,0.1962,0.1962,0.1962,0.1962,0.1775,0.1778,0.1792,0.1802,0.1816,0.1825,0.1832,0.1843,0.1855,0.1867,0.1876,0.189,0.1907,0.192,0.193,0.1936,0.1939,0.1931,0.1939,0.1964,0.1969,0.1973,0.1973,0.1932,0.1932,0.191,0.191,0.1909]}]]